Location: Jaite
(41.2884°N, 81.5737°W)
Time: 12:09:14
(UTC+00:00)

Cosmos 1452 Rocket - Pass Details

Date: 15 November 2025
Orbit: 763 x 770 km, 74.1° (Epoch: 11 December)

Event Time Altitude Azimuth Distance (km) Brightness Sun altitude
Rises 11:28:14 0° 209° (SSW) 3,214 6.6 -9.0°
Reaches altitude 10° 11:30:38 10° 214° (SSW) 2,291 5.8 -8.6°
Maximum altitude 11:35:44 57° 292° (WNW) 898 3.6 -7.7°
Drops below altitude 10° 11:40:53 10° 12° (NNE) 2,306 5.9 -6.8°
Sets 11:43:19 0° 16° (NNE) 3,236 6.7 -6.3°
